Powrót do katalogu

YUNYAO-1 57

AktywnyPogodaSSO
NORAD 63293·PAYLOAD·🇨🇳 China
Ta nazwa satelity nie została jeszcze potwierdzona przez oficjalne źródła.

Wystrzelony Mar 17, 2025 z Jiuquan Satellite Launch Center

Loading…

Następne Przeloty (najbliższe 24 godziny)

TLE

ŚwieżeSource: Space-Track

Epoka: Sep 14, 2026, 15:13 UTC

1 63293U 25055C   26257.63428664  .00005466  00000-0  32333-3 0  9999
2 63293  97.6633  38.3677 0041641 192.2586 167.7635 15.11143060 82571

Śledź YUNYAO-1 57 w czasie rzeczywistym z AllMySat

Download on the App Store